Location: Brookview Estates
(36.0476°N, 86.6931°W)
Time: 08:34:13
(UTC+00:00)

Cosmos 1745 Rocket - Pass Details

Date: 30 March 2020
Orbit: 952 x 999 km, 83.0° (Epoch: 25 May)

Event Time Altitude Azimuth Distance (km) Brightness Sun altitude
Rises 00:21:15 0° 1° (N) 3,709 7.1 -3.8°
Reaches altitude 10° 00:23:57 10° 8° (N) 2,750 6.4 -4.3°
Maximum altitude 00:29:54 43° 79° (ENE) 1,348 4.4 -5.5°
Drops below altitude 10° 00:35:45 10° 149° (SSE) 2,704 6.0 -6.7°
Sets 00:38:22 0° 156° (SSE) 3,640 6.7 -7.2°
